Location: Roanoke
(37.2710°N, 79.9420°W)
Time: 17:03:03
(UTC-05:00)

SR - All Passes

Search period start: 21 November 2019 00:00
Search period end: 01 December 2019 00:00
Orbit: 573 x 882 km, 66.7° (Epoch: 21 November)

Date Brightness Start Highest point End Pass type
(mag) Time Alt. Az. Time Alt. Az. Time Alt. Az.
21 Nov - 01:02:26 10° WNW 01:06:37 21° WSW 01:10:39 10° SSW night (unlit)
21 Nov - 13:46:36 10° S 13:51:38 56° ESE 13:57:08 10° NE daylight
21 Nov - 15:30:03 10° W 15:34:10 22° NW 15:38:31 10° N daylight
21 Nov - 22:29:54 10° N 22:35:05 30° NE 22:40:05 10° ESE night (unlit)
22 Nov - 00:11:49 10° NW 00:17:19 41° WSW 00:22:31 10° S night (unlit)
22 Nov - 12:57:59 10° SSE 13:02:16 27° ESE 13:06:51 10° NE daylight
22 Nov - 14:39:11 10° SW 14:44:07 39° NW 14:49:26 10° NNE daylight
22 Nov - 21:41:03 10° N 21:44:56 18° NE 21:48:44 10° E night (unlit)
22 Nov - 23:21:52 10° NNW 23:27:48 82° WSW 23:33:24 10° SSE night (unlit)
23 Nov - 12:11:01 10° SE 12:13:06 12° E 12:15:13 10° ENE daylight
23 Nov - 13:49:05 10° SSW 13:54:18 77° WNW 14:00:00 10° NNE daylight
23 Nov - 15:34:52 10° WNW 15:37:27 13° NW 15:40:07 10° NNW daylight
23 Nov - 20:54:15 10° NE 20:54:33 10° NE 20:54:50 10° NE night (unlit)
23 Nov - 22:32:17 10° NNW 22:38:04 52° ENE 22:43:35 10° SE night (unlit)
24 Nov - 00:15:24 10° WNW 00:19:44 22° WSW 00:23:54 10° SSW night (unlit)
24 Nov - 12:59:41 10° S 13:04:43 52° ESE 13:10:12 10° NE daylight
24 Nov - 14:42:57 10° W 14:47:11 23° NW 14:51:41 10° N daylight
24 Nov - 21:43:02 10° N 21:48:08 29° NE 21:53:02 10° ESE night (unlit)
24 Nov - 23:24:52 10° NW 23:30:24 44° WSW 23:35:39 10° S night (unlit)
25 Nov - 12:11:10 10° SSE 12:15:22 25° ESE 12:19:51 10° NE daylight
25 Nov - 13:52:09 10° SW 13:57:10 42° NW 14:02:34 10° NNE daylight
25 Nov - 20:54:15 10° N 20:57:57 17° NE 21:01:34 10° E night (unlit)
25 Nov - 22:34:57 10° NNW 22:40:53 87° WSW 22:46:29 10° SSE night (unlit)
26 Nov - 00:20:58 10° W 00:22:00 10° W 00:23:01 10° WSW night (unlit)
26 Nov - 11:24:31 10° ESE 11:26:12 11° E 11:27:56 10° E daylight
26 Nov - 13:02:07 10° SSW 13:07:22 82° WNW 13:13:05 10° NNE daylight
26 Nov - 14:47:37 10° WNW 14:50:28 14° NW 14:53:24 10° N daylight
26 Nov - 21:45:24 10° NNW 21:51:08 49° ENE 21:56:34 10° SE night (unlit)
26 Nov - 23:28:23 10° NW 23:32:51 23° WSW 23:37:07 10° SSW night (unlit)
27 Nov - 12:12:47 10° S 12:17:48 49° ESE 12:23:15 10° NE daylight
27 Nov - 13:55:51 10° WSW 14:00:13 24° NW 14:04:51 10° N daylight
27 Nov - 20:56:10 10° N 21:01:10 27° NE 21:05:57 10° ESE night (unlit)
27 Nov - 22:37:56 10° NW 22:43:30 46° WSW 22:48:46 10° S night (unlit)
28 Nov - 11:24:21 10° SSE 11:28:28 24° ESE 11:32:51 10° NE daylight
28 Nov - 13:05:07 10° SW 13:10:12 44° NW 13:15:42 10° NNE daylight
28 Nov - 20:07:27 10° N 20:10:58 16° NE 20:14:24 10° E visible
28 Nov - 21:48:03 10° NNW 21:53:58 89° ENE 21:59:32 10° SSE night (unlit)
28 Nov - 23:33:26 10° W 23:35:07 11° W 23:36:47 10° WSW night (unlit)
29 Nov - 10:38:10 10° ESE 10:39:19 11° E 10:40:29 10° E daylight
29 Nov - 12:15:09 10° SSW 12:20:26 87° WNW 12:26:11 10° NNE daylight
29 Nov - 14:00:23 10° WNW 14:03:28 15° NW 14:06:39 10° N daylight
29 Nov - 20:58:31 10° NNW 21:04:11 47° ENE 21:09:34 10° SE visible
29 Nov - 22:41:21 10° NW 22:45:57 24° WSW 22:50:20 10° SSW night (unlit)
30 Nov - 11:25:54 10° S 11:30:53 46° ESE 11:36:18 10° NE daylight
30 Nov - 13:08:45 10° WSW 13:13:15 26° NW 13:18:00 10° N daylight
30 Nov - 20:09:19 10° N 20:14:12 26° NE 20:18:53 10° ESE visible
30 Nov - 21:50:58 10° NW 21:56:36 49° WSW 22:01:53 10° S night (unlit)
